| time (UTC) | temp F | wind direction | speed MPH | gust MPH | rain 1hr in | rain 24hr in | rain mn in | humidity % | barometer mb |
| 20260506231336 | 45 | 316 | 0.0 | 0.0 | 0.00 | 0.61 | 0.61 | 98 | 1010.1 |
| 20260506230833 | 44 | 318 | 0.0 | 0.0 | 0.00 | 0.61 | 0.61 | 98 | 1010.0 |
| 20260506230330 | 44 | 319 | 0.0 | 0.0 | 0.00 | 0.61 | 0.61 | 98 | 1010.2 |
| 20260506225826 | 45 | 1 | 0.0 | 0.0 | 0.00 | 0.61 | 0.61 | 98 | 1010.0 |
| 20260506225324 | 45 | 316 | 0.0 | 0.0 | 0.00 | 0.61 | 0.61 | 98 | 1010.1 |
| 20260506224821 | 45 | 331 | 0.0 | 0.0 | 0.00 | 0.61 | 0.61 | 98 | 1010.3 |
| 20260506224318 | 45 | 337 | 0.0 | 0.0 | 0.00 | 0.61 | 0.61 | 98 | 1010.4 |
| 20260506223814 | 45 | 345 | 0.0 | 0.0 | 0.00 | 0.61 | 0.61 | 98 | 1010.6 |
| 20260506223309 | 45 | 318 | 0.0 | 0.0 | 0.00 | 0.61 | 0.61 | 98 | 1010.8 |
| 20260506222807 | 45 | 334 | 0.0 | 0.0 | 0.00 | 0.61 | 0.61 | 98 | 1010.7 |
| 20260506222305 | 45 | 278 | 0.0 | 0.0 | 0.00 | 0.61 | 0.61 | 98 | 1010.6 |
| 20260506221800 | 45 | 324 | 0.0 | 0.0 | 0.00 | 0.61 | 0.61 | 98 | 1010.7 |
| 20260506221258 | 45 | 313 | 0.0 | 0.0 | 0.00 | 0.61 | 0.61 | 98 | 1010.9 |
| 20260506220755 | 45 | 335 | 0.0 | 0.0 | 0.00 | 0.61 | 0.61 | 98 | 1010.6 |
| 20260506220249 | 46 | 320 | 0.0 | 0.0 | 0.00 | 0.61 | 0.61 | 98 | 1010.5 |
| 20260506215747 | 46 | 285 | 0.0 | 0.0 | 0.00 | 0.61 | 0.61 | 98 | 1010.6 |
| 20260506215242 | 46 | 341 | 0.0 | 0.0 | 0.00 | 0.61 | 0.61 | 98 | 1010.3 |
| 20260506214739 | 46 | 313 | 0.0 | 2.0 | 0.00 | 0.61 | 0.61 | 98 | 1010.5 |
| 20260506214236 | 46 | 9 | 0.0 | 0.0 | 0.00 | 0.61 | 0.61 | 98 | 1010.1 |
| 20260506213735 | 46 | 316 | 0.0 | 0.0 | 0.00 | 0.61 | 0.61 | 98 | 1010.1 |
| 20260506213231 | 46 | 3 | 0.0 | 0.0 | 0.00 | 0.61 | 0.61 | 98 | 1010.1 |
| 20260506212728 | 46 | 332 | 0.0 | 1.0 | 0.00 | 0.61 | 0.61 | 98 | 1010.1 |
| 20260506212224 | 46 | 315 | 0.0 | 0.0 | 0.00 | 0.61 | 0.61 | 98 | 1010.2 |
| 20260506211719 | 46 | 311 | 0.0 | 0.0 | 0.00 | 0.61 | 0.61 | 98 | 1010.3 |
| 20260506211216 | 46 | 351 | 0.0 | 0.0 | 0.00 | 0.61 | 0.61 | 98 | 1010.2 |
| 20260506210713 | 46 | 330 | 0.0 | 0.0 | 0.00 | 0.61 | 0.61 | 98 | 1010.2 |
| 20260506210210 | 46 | 316 | 1.0 | 2.0 | 0.00 | 0.61 | 0.61 | 98 | 1010.3 |
| 20260506205707 | 46 | 341 | 0.0 | 0.0 | 0.00 | 0.61 | 0.61 | 98 | 1009.9 |
| 20260506205202 | 46 | 354 | 0.0 | 0.0 | 0.00 | 0.61 | 0.61 | 98 | 1009.8 |
| 20260506204659 | 46 | 313 | 0.0 | 0.0 | 0.00 | 0.61 | 0.61 | 98 | 1009.6 |
| 20260506204156 | 46 | 308 | 1.0 | 2.0 | 0.00 | 0.61 | 0.61 | 98 | 1009.7 |
| 20260506203654 | 46 | 319 | 0.0 | 0.0 | 0.00 | 0.61 | 0.61 | 98 | 1009.6 |
| 20260506203151 | 46 | 1 | 0.0 | 0.0 | 0.07 | 0.61 | 0.61 | 98 | 1009.5 |
| 20260506202649 | 46 | 317 | 0.0 | 0.0 | 0.07 | 0.61 | 0.61 | 98 | 1009.5 |
| 20260506202145 | 46 | 267 | 0.0 | 0.0 | 0.00 | 0.60 | 0.60 | 98 | 1009.4 |
| 20260506201642 | 46 | 342 | 0.0 | 0.0 | 0.00 | 0.60 | 0.60 | 98 | 1009.4 |
| 20260506201138 | 46 | 322 | 0.0 | 0.0 | 0.00 | 0.60 | 0.60 | 98 | 1009.1 |
| 20260506200635 | 46 | 35 | 0.0 | 0.0 | 0.00 | 0.60 | 0.60 | 98 | 1009.2 |
| 20260506200132 | 46 | 342 | 0.0 | 0.0 | 0.00 | 0.60 | 0.60 | 98 | 1009.4 |
| 20260506195629 | 46 | 293 | 0.0 | 1.0 | 0.00 | 0.60 | 0.60 | 98 | 1009.5 |
| 20260506195125 | 46 | 289 | 1.0 | 2.0 | 0.00 | 0.60 | 0.60 | 98 | 1009.7 |
| 20260506194623 | 46 | 354 | 0.0 | 0.0 | 0.00 | 0.60 | 0.60 | 98 | 1009.6 |
| 20260506194119 | 46 | 331 | 0.0 | 0.0 | 0.00 | 0.60 | 0.60 | 98 | 1009.6 |
| 20260506193617 | 46 | 294 | 0.0 | 0.0 | 0.00 | 0.60 | 0.60 | 98 | 1009.5 |
| 20260506193114 | 46 | 307 | 0.0 | 0.0 | 0.00 | 0.60 | 0.60 | 98 | 1009.4 |
| 20260506192611 | 46 | 325 | 0.0 | 0.0 | 0.00 | 0.60 | 0.60 | 98 | 1009.4 |
| 20260506192106 | 46 | 322 | 0.0 | 0.0 | 0.00 | 0.60 | 0.60 | 98 | 1009.1 |
| 20260506191603 | 46 | 42 | 0.0 | 0.0 | 0.00 | 0.60 | 0.60 | 98 | 1009.1 |
| 20260506191059 | 46 | 324 | 0.0 | 0.0 | 0.00 | 0.60 | 0.60 | 98 | 1009.2 |
| 20260506190557 | 46 | 346 | 0.0 | 0.0 | 0.00 | 0.60 | 0.60 | 98 | 1009.1 |
| 20260506190053 | 46 | 316 | 0.0 | 0.0 | 0.00 | 0.60 | 0.60 | 98 | 1009.0 |
| 20260506185551 | 46 | 348 | 0.0 | 0.0 | 0.00 | 0.60 | 0.60 | 98 | 1009.1 |
| 20260506185047 | 46 | 327 | 0.0 | 0.0 | 0.00 | 0.60 | 0.60 | 98 | 1009.0 |
| 20260506184544 | 46 | 301 | 0.0 | 0.0 | 0.00 | 0.60 | 0.60 | 98 | 1008.8 |
| 20260506184042 | 46 | 339 | 0.0 | 0.0 | 0.00 | 0.60 | 0.60 | 98 | 1009.2 |
| 20260506183537 | 46 | 355 | 0.0 | 0.0 | 0.00 | 0.60 | 0.60 | 98 | 1009.1 |
| 20260506183034 | 46 | 288 | 0.0 | 0.0 | 0.00 | 0.60 | 0.60 | 98 | 1009.0 |
| 20260506182532 | 46 | 350 | 0.0 | 0.0 | 0.00 | 0.60 | 0.60 | 98 | 1008.7 |
| 20260506182029 | 46 | 345 | 0.0 | 0.0 | 0.00 | 0.60 | 0.60 | 98 | 1008.8 |
| 20260506181527 | 46 | 321 | 0.0 | 0.0 | 0.00 | 0.60 | 0.60 | 98 | 1008.6 |
| 20260506181023 | 46 | 268 | 1.0 | 3.0 | 0.00 | 0.60 | 0.60 | 98 | 1008.6 |
| 20260506180520 | 47 | 334 | 0.0 | 0.0 | 0.00 | 0.60 | 0.60 | 98 | 1008.2 |
| 20260506180016 | 46 | 302 | 0.0 | 0.0 | 0.00 | 0.60 | 0.60 | 98 | 1008.4 |
| 20260506175513 | 47 | 338 | 0.0 | 0.0 | 0.00 | 0.60 | 0.60 | 98 | 1008.3 |
| 20260506175009 | 47 | 288 | 0.0 | 0.0 | 0.05 | 0.60 | 0.60 | 98 | 1008.4 |
| 20260506174508 | 47 | 307 | 0.0 | 0.0 | 0.05 | 0.60 | 0.60 | 98 | 1008.6 |
| 20260506174004 | 47 | 322 | 0.0 | 0.0 | 0.00 | 0.59 | 0.59 | 98 | 1008.3 |
| 20260506173502 | 47 | 323 | 0.0 | 0.0 | 0.00 | 0.59 | 0.59 | 98 | 1008.5 |
| 20260506172958 | 47 | 333 | 0.0 | 0.0 | 0.00 | 0.59 | 0.59 | 98 | 1008.3 |
| 20260506172456 | 47 | 318 | 0.0 | 0.0 | 0.00 | 0.59 | 0.59 | 98 | 1008.0 |
| 20260506171952 | 47 | 308 | 0.0 | 0.0 | 0.00 | 0.59 | 0.59 | 98 | 1008.2 |
| 20260506171449 | 48 | 5 | 0.0 | 0.0 | 0.00 | 0.59 | 0.59 | 98 | 1008.3 |
| 20260506170941 | 47 | 332 | 0.0 | 0.0 | 0.00 | 0.59 | 0.59 | 98 | 1008.2 |
| 20260506170438 | 47 | 315 | 0.0 | 0.0 | 0.00 | 0.59 | 0.59 | 98 | 1008.1 |
| 20260506165936 | 47 | 316 | 0.0 | 0.0 | 0.00 | 0.59 | 0.59 | 98 | 1008.1 |
| 20260506165434 | 47 | 315 | 0.0 | 0.0 | 0.00 | 0.59 | 0.59 | 98 | 1008.3 |
| 20260506164930 | 47 | 322 | 0.0 | 0.0 | 0.07 | 0.59 | 0.59 | 98 | 1008.3 |
| 20260506164427 | 47 | 315 | 0.0 | 0.0 | 0.07 | 0.59 | 0.59 | 98 | 1008.3 |
| 20260506163925 | 46 | 314 | 0.0 | 0.0 | 0.00 | 0.58 | 0.58 | 98 | 1008.5 |
| 20260506163419 | 47 | 29 | 0.0 | 0.0 | 0.00 | 0.58 | 0.58 | 98 | 1008.4 |
| 20260506162909 | 47 | 339 | 0.0 | 0.0 | 0.00 | 0.58 | 0.58 | 98 | 1008.2 |
| 20260506162407 | 47 | 335 | 0.0 | 0.0 | 0.00 | 0.58 | 0.58 | 98 | 1008.3 |
| 20260506161904 | 46 | 289 | 0.0 | 0.0 | 0.05 | 0.58 | 0.58 | 98 | 1008.2 |
| 20260506161401 | 46 | 312 | 0.0 | 0.0 | 0.05 | 0.58 | 0.58 | 98 | 1008.5 |
| 20260506160859 | 46 | 326 | 0.0 | 0.0 | 0.07 | 0.57 | 0.57 | 98 | 1008.5 |
| 20260506160356 | 46 | 327 | 0.0 | 0.0 | 0.07 | 0.57 | 0.57 | 98 | 1008.7 |
| 20260506155854 | 46 | 270 | 0.0 | 0.0 | 0.00 | 0.56 | 0.56 | 98 | 1008.4 |
| 20260506155350 | 46 | 312 | 0.0 | 0.0 | 0.05 | 0.56 | 0.56 | 98 | 1008.8 |
| 20260506153508 | 45 | 336 | 0.0 | 0.0 | 0.00 | 0.55 | 0.55 | 98 | 1008.8 |
| 20260506153005 | 45 | 316 | 0.0 | 0.0 | 0.00 | 0.55 | 0.55 | 98 | 1008.9 |
| 20260506152502 | 45 | 327 | 0.0 | 0.0 | 0.00 | 0.55 | 0.55 | 98 | 1008.9 |
| 20260506152000 | 46 | 331 | 0.0 | 0.0 | 0.07 | 0.55 | 0.55 | 98 | 1008.2 |
| 20260506151457 | 45 | 326 | 0.0 | 0.0 | 0.07 | 0.55 | 0.55 | 98 | 1008.5 |
| 20260506150955 | 45 | 326 | 0.0 | 0.0 | 0.00 | 0.54 | 0.54 | 98 | 1008.5 |
| 20260506150450 | 45 | 342 | 0.0 | 0.0 | 0.00 | 0.54 | 0.54 | 98 | 1008.3 |
| 20260506145947 | 45 | 337 | 0.0 | 0.0 | 0.00 | 0.54 | 0.54 | 98 | 1008.1 |
| 20260506145443 | 45 | 327 | 0.0 | 0.0 | 0.05 | 0.54 | 0.54 | 98 | 1008.2 |
| 20260506144942 | 45 | 313 | 0.0 | 0.0 | 0.05 | 0.54 | 0.54 | 98 | 1008.1 |
| 20260506144438 | 46 | 313 | 0.0 | 0.0 | 0.00 | 0.53 | 0.53 | 98 | 1008.3 |
| 20260506143937 | 45 | 337 | 0.0 | 0.0 | 0.07 | 0.53 | 0.53 | 98 | 1008.0 |
| 20260506143433 | 45 | 293 | 0.0 | 0.0 | 0.07 | 0.53 | 0.53 | 98 | 1008.1 |
| 20260506142932 | 45 | 291 | 0.0 | 0.0 | 0.00 | 0.52 | 0.52 | 98 | 1008.0 |
| 20260506142429 | 45 | 300 | 0.0 | 0.0 | 0.00 | 0.52 | 0.52 | 98 | 1008.2 |
| 20260506141927 | 45 | 341 | 0.0 | 0.0 | 0.05 | 0.52 | 0.52 | 98 | 1008.3 |
| 20260506141425 | 45 | 326 | 0.0 | 0.0 | 0.05 | 0.52 | 0.52 | 98 | 1008.5 |
| 20260506140923 | 45 | 323 | 0.0 | 0.0 | 0.00 | 0.51 | 0.51 | 98 | 1008.2 |
| 20260506140419 | 45 | 347 | 0.0 | 0.0 | 0.07 | 0.51 | 0.51 | 98 | 1008.5 |
| 20260506135916 | 45 | 347 | 0.0 | 0.0 | 0.07 | 0.51 | 0.51 | 98 | 1008.3 |
| 20260506135414 | 45 | 339 | 0.0 | 0.0 | 0.07 | 0.50 | 0.50 | 98 | 1008.3 |
| 20260506134910 | 45 | 354 | 0.0 | 0.0 | 0.07 | 0.50 | 0.50 | 98 | 1008.4 |
| 20260506134406 | 45 | 293 | 0.0 | 0.0 | 0.05 | 0.49 | 0.49 | 98 | 1008.4 |
| 20260506133903 | 45 | 343 | 0.0 | 0.0 | 0.12 | 0.49 | 0.49 | 98 | 1008.6 |
| 20260506133400 | 45 | 349 | 0.0 | 0.0 | 0.12 | 0.48 | 0.48 | 98 | 1008.4 |
| 20260506132856 | 45 | 349 | 0.0 | 0.0 | 0.12 | 0.47 | 0.47 | 98 | 1008.7 |
| 20260506132353 | 45 | 359 | 0.0 | 0.0 | 0.12 | 0.46 | 0.46 | 98 | 1008.5 |
| 20260506131852 | 45 | 328 | 0.0 | 0.0 | 0.12 | 0.45 | 0.45 | 98 | 1008.7 |
| 20260506131347 | 45 | 335 | 0.0 | 0.0 | 0.12 | 0.44 | 0.44 | 98 | 1008.3 |
| 20260506130845 | 45 | 322 | 0.0 | 0.0 | 0.17 | 0.43 | 0.43 | 98 | 1008.6 |
| 20260506130341 | 45 | 343 | 0.0 | 0.0 | 0.19 | 0.42 | 0.42 | 98 | 1008.7 |
| 20260506125839 | 45 | 322 | 0.0 | 0.0 | 0.19 | 0.40 | 0.40 | 98 | 1008.6 |
| 20260506125337 | 44 | 9 | 0.0 | 0.0 | 0.19 | 0.39 | 0.39 | 98 | 1008.8 |
| 20260506124835 | 44 | 326 | 0.0 | 0.0 | 0.19 | 0.37 | 0.37 | 98 | 1008.8 |
| 20260506124332 | 45 | 20 | 0.0 | 0.0 | 0.17 | 0.36 | 0.36 | 98 | 1008.3 |
| 20260506123829 | 45 | 328 | 0.0 | 0.0 | 0.17 | 0.34 | 0.34 | 98 | 1008.6 |
| 20260506123328 | 45 | 315 | 0.0 | 0.0 | 0.19 | 0.33 | 0.33 | 98 | 1008.2 |
| 20260506122825 | 45 | 2 | 0.0 | 0.0 | 0.07 | 0.31 | 0.31 | 98 | 1008.5 |
| 20260506122322 | 45 | 327 | 0.0 | 0.0 | 0.05 | 0.30 | 0.30 | 98 | 1008.5 |
| 20260506121820 | 45 | 51 | 0.0 | 0.0 | 0.05 | 0.30 | 0.30 | 98 | 1008.5 |
| 20260506121317 | 45 | 341 | 0.0 | 0.0 | 0.07 | 0.29 | 0.29 | 98 | 1008.2 |
| 20260506120814 | 45 | 328 | 0.0 | 0.0 | 0.07 | 0.29 | 0.29 | 98 | 1008.2 |
| 20260506120311 | 45 | 317 | 0.0 | 0.0 | 0.00 | 0.28 | 0.28 | 98 | 1008.3 |
| 20260506115809 | 45 | 322 | 0.0 | 0.0 | 0.05 | 0.28 | 0.28 | 98 | 1008.4 |
| 20260506115307 | 45 | 299 | 0.0 | 0.0 | 0.05 | 0.28 | 0.28 | 98 | 1008.4 |
| 20260506114805 | 45 | 330 | 0.0 | 0.0 | 0.00 | 0.27 | 0.27 | 98 | 1008.6 |
| 20260506114302 | 45 | 299 | 0.0 | 0.0 | 0.00 | 0.27 | 0.27 | 98 | 1008.5 |
| 20260506113801 | 45 | 320 | 0.0 | 0.0 | 0.07 | 0.27 | 0.27 | 98 | 1008.5 |
| 20260506113258 | 45 | 328 | 0.0 | 0.0 | 0.07 | 0.27 | 0.27 | 98 | 1008.6 |
| 20260506112754 | 45 | 321 | 0.0 | 0.0 | 0.12 | 0.26 | 0.26 | 98 | 1008.8 |
| 20260506112251 | 45 | 338 | 0.0 | 0.0 | 0.19 | 0.26 | 0.26 | 98 | 1008.8 |
| 20260506111749 | 45 | 328 | 0.0 | 0.0 | 0.12 | 0.25 | 0.25 | 98 | 1008.8 |
| 20260506111247 | 46 | 320 | 0.0 | 0.0 | 0.12 | 0.24 | 0.24 | 98 | 1008.9 |
| 20260506110743 | 45 | 321 | 0.0 | 0.0 | 0.12 | 0.23 | 0.23 | 98 | 1009.0 |
| 20260506110241 | 45 | 331 | 0.0 | 0.0 | 0.12 | 0.22 | 0.22 | 98 | 1008.6 |
| 20260506105737 | 45 | 334 | 0.0 | 0.0 | 0.12 | 0.21 | 0.21 | 98 | 1008.9 |
| 20260506105235 | 45 | 27 | 0.0 | 0.0 | 0.07 | 0.20 | 0.20 | 98 | 1008.7 |
| 20260506104732 | 45 | 308 | 0.0 | 0.0 | 0.05 | 0.19 | 0.19 | 98 | 1008.6 |
| 20260506104229 | 45 | 347 | 0.0 | 0.0 | 0.12 | 0.19 | 0.19 | 98 | 1008.6 |
| 20260506103726 | 45 | 325 | 0.0 | 0.0 | 0.07 | 0.18 | 0.18 | 98 | 1008.8 |
| 20260506103224 | 45 | 316 | 0.0 | 0.0 | 0.00 | 0.17 | 0.17 | 98 | 1009.0 |
| 20260506102722 | 45 | 345 | 0.0 | 0.0 | 0.05 | 0.17 | 0.17 | 98 | 1008.5 |
| 20260506102220 | 45 | 355 | 0.0 | 0.0 | 0.12 | 0.17 | 0.17 | 98 | 1008.4 |
| 20260506101716 | 45 | 331 | 0.0 | 0.0 | 0.12 | 0.16 | 0.16 | 98 | 1008.5 |
| 20260506101212 | 45 | 9 | 0.0 | 0.0 | 0.05 | 0.15 | 0.15 | 98 | 1008.5 |
| 20260506100711 | 45 | 334 | 0.0 | 0.0 | 0.07 | 0.14 | 0.14 | 98 | 1008.5 |
| 20260506100209 | 45 | 338 | 0.0 | 0.0 | 0.07 | 0.14 | 0.14 | 98 | 1008.4 |
| 20260506095707 | 45 | 11 | 0.0 | 0.0 | 0.00 | 0.13 | 0.13 | 98 | 1008.4 |
| 20260506095203 | 45 | 79 | 0.0 | 0.0 | 0.00 | 0.13 | 0.13 | 98 | 1008.4 |
| 20260506094700 | 45 | 6 | 0.0 | 0.0 | 0.07 | 0.13 | 0.13 | 98 | 1008.6 |
| 20260506094158 | 45 | 1 | 0.0 | 0.0 | 0.12 | 0.13 | 0.13 | 98 | 1009.0 |
| 20260506093657 | 45 | 13 | 0.0 | 0.0 | 0.12 | 0.12 | 0.12 | 98 | 1009.1 |
| 20260506093153 | 45 | 8 | 0.0 | 0.0 | 0.12 | 0.11 | 0.11 | 98 | 1009.2 |
| 20260506092651 | 45 | 313 | 0.0 | 0.0 | 0.05 | 0.10 | 0.10 | 98 | 1009.1 |
| 20260506092148 | 45 | 311 | 0.0 | 0.0 | 0.07 | 0.09 | 0.09 | 98 | 1009.1 |
| 20260506091646 | 45 | 307 | 0.0 | 0.0 | 0.07 | 0.09 | 0.09 | 98 | 1009.2 |
| 20260506091143 | 45 | 264 | 0.0 | 0.0 | 0.05 | 0.08 | 0.08 | 98 | 1009.2 |
| 20260506090641 | 45 | 43 | 0.0 | 0.0 | 0.12 | 0.08 | 0.08 | 98 | 1009.1 |
| 20260506090138 | 45 | 313 | 0.0 | 0.0 | 0.07 | 0.07 | 0.07 | 98 | 1009.2 |
| 20260506085634 | 45 | 355 | 0.0 | 0.0 | 0.05 | 0.06 | 0.06 | 98 | 1009.1 |
| 20260506085131 | 45 | 287 | 0.0 | 0.0 | 0.05 | 0.06 | 0.06 | 98 | 1009.4 |
| 20260506084627 | 45 | 18 | 0.0 | 0.0 | 0.05 | 0.06 | 0.06 | 98 | 1009.1 |
| 20260506084124 | 45 | 347 | 0.0 | 0.0 | 0.00 | 0.05 | 0.05 | 98 | 1009.0 |
| 20260506083621 | 45 | 8 | 0.0 | 0.0 | 0.07 | 0.05 | 0.05 | 98 | 1008.8 |
| 20260506083119 | 45 | 331 | 0.0 | 0.0 | 0.07 | 0.05 | 0.05 | 98 | 1009.4 |
| 20260506082615 | 45 | 288 | 0.0 | 1.0 | 0.00 | 0.04 | 0.04 | 98 | 1008.9 |
| 20260506082111 | 46 | 27 | 0.0 | 0.0 | 0.00 | 0.04 | 0.04 | 98 | 1009.3 |
| 20260506081609 | 46 | 345 | 0.0 | 0.0 | 0.12 | 0.04 | 0.04 | 98 | 1009.1 |
| 20260506081107 | 46 | 312 | 0.0 | 1.0 | 0.12 | 0.04 | 0.04 | 98 | 1009.2 |
| 20260506080604 | 46 | 18 | 1.0 | 1.0 | 0.07 | 0.03 | 0.03 | 98 | 1008.9 |
| 20260506073044 | 48 | 303 | 1.0 | 2.0 | 0.00 | 0.02 | 0.02 | 98 | 1009.0 |
| 20260506072541 | 48 | 29 | 0.0 | 0.0 | 0.00 | 0.02 | 0.02 | 98 | 1008.5 |
| 20260506072039 | 48 | 10 | 0.0 | 0.0 | 0.00 | 0.02 | 0.02 | 98 | 1008.6 |
| 20260506071537 | 48 | 10 | 0.0 | 0.0 | 0.05 | 0.02 | 0.02 | 98 | 1009.0 |
| 20260506071034 | 48 | 337 | 0.0 | 0.0 | 0.05 | 0.02 | 0.02 | 98 | 1009.2 |
| 20260506070531 | 48 | 313 | 0.0 | 0.0 | 0.00 | 0.01 | 0.01 | 98 | 1009.2 |
| 20260506062508 | 48 | 335 | 0.0 | 0.0 | 0.00 | 0.01 | 0.01 | 98 | 1009.5 |
| 20260506062005 | 48 | 339 | 0.0 | 0.0 | 0.00 | 0.01 | 0.01 | 98 | 1009.5 |
| 20260506061501 | 48 | 7 | 0.0 | 0.0 | 0.00 | 0.01 | 0.01 | 98 | 1009.4 |
| 20260506060959 | 48 | 14 | 0.0 | 0.0 | 0.00 | 0.01 | 0.01 | 98 | 1009.5 |
| 20260506060457 | 48 | 350 | 0.0 | 0.0 | 0.00 | 0.01 | 0.01 | 98 | 1009.4 |
| 20260506050926 | 49 | 322 | 0.0 | 0.0 | 0.00 | 0.00 | 0.00 | 98 | 1010.5 |
| 20260506050424 | 49 | 19 | 0.0 | 0.0 | 0.00 | 0.00 | 0.00 | 97 | 1010.5 |
| 20260506044914 | 49 | 343 | 0.0 | 0.0 | 0.00 | 0.00 | 0.00 | 97 | 1010.3 |
| 20260506044412 | 49 | 357 | 0.0 | 0.0 | 0.00 | 0.00 | 0.00 | 97 | 1010.3 |
| 20260506043909 | 49 | 339 | 0.0 | 0.0 | 0.00 | 0.00 | 0.00 | 97 | 1010.4 |
| 20260506043406 | 49 | 320 | 0.0 | 0.0 | 0.00 | 0.00 | 0.00 | 97 | 1010.7 |
| 20260506042904 | 49 | 354 | 0.0 | 0.0 | 0.00 | 0.00 | 0.00 | 97 | 1010.2 |
| 20260506042403 | 49 | 310 | 0.0 | 0.0 | 0.00 | 0.00 | 0.00 | 97 | 1010.3 |
| 20260506041900 | 49 | 339 | 0.0 | 0.0 | 0.00 | 0.00 | 0.00 | 97 | 1010.5 |
| 20260506041358 | 49 | 333 | 0.0 | 0.0 | 0.00 | 0.00 | 0.00 | 97 | 1010.2 |
| 20260506040855 | 48 | 273 | 0.0 | 0.0 | 0.00 | 0.00 | 0.00 | 97 | 1010.3 |
| 20260506040353 | 48 | 338 | 0.0 | 0.0 | 0.07 | 0.00 | 0.00 | 97 | 1010.1 |
| 20260506035848 | 48 | 327 | 0.0 | 0.0 | 0.12 | 0.50 | 0.50 | 97 | 1010.3 |
| 20260506035346 | 49 | 7 | 0.0 | 0.0 | 0.17 | 0.49 | 0.49 | 97 | 1010.4 |
| 20260506034843 | 49 | 7 | 0.0 | 0.0 | 0.19 | 0.48 | 0.48 | 97 | 1011.2 |
| 20260506034340 | 49 | 297 | 0.0 | 0.0 | 0.12 | 0.46 | 0.46 | 97 | 1010.8 |
| 20260506033837 | 49 | 136 | 0.0 | 0.0 | 0.17 | 0.45 | 0.45 | 97 | 1010.7 |
| 20260506033334 | 49 | 354 | 0.0 | 0.0 | 0.12 | 0.44 | 0.44 | 96 | 1010.3 |
| 20260506032831 | 49 | 333 | 0.0 | 0.0 | 0.00 | 0.42 | 0.42 | 96 | 1010.9 |
| 20260506032327 | 49 | 318 | 0.0 | 0.0 | 0.07 | 0.42 | 0.42 | 96 | 1010.6 |
| 20260506031825 | 49 | 315 | 0.0 | 0.0 | 0.07 | 0.42 | 0.42 | 96 | 1010.6 |
| 20260506031322 | 49 | 2 | 0.0 | 0.0 | 0.05 | 0.41 | 0.41 | 96 | 1010.4 |
| 20260506030819 | 49 | 340 | 0.0 | 0.0 | 0.12 | 0.41 | 0.41 | 96 | 1010.5 |
| 20260506030317 | 49 | 7 | 0.0 | 0.0 | 0.07 | 0.40 | 0.40 | 96 | 1010.7 |
| 20260506025814 | 49 | 314 | 0.0 | 0.0 | 0.07 | 0.40 | 0.40 | 96 | 1011.2 |
| 20260506025310 | 49 | 320 | 0.0 | 0.0 | 0.07 | 0.39 | 0.39 | 96 | 1010.9 |
| 20260506024808 | 49 | 328 | 0.0 | 0.0 | 0.07 | 0.39 | 0.39 | 96 | 1010.5 |
| 20260506024304 | 49 | 327 | 0.0 | 0.0 | 0.05 | 0.38 | 0.38 | 96 | 1011.1 |
| 20260506023800 | 49 | 314 | 0.0 | 0.0 | 0.12 | 0.38 | 0.38 | 96 | 1010.9 |
| 20260506023257 | 49 | 338 | 0.0 | 0.0 | 0.12 | 0.37 | 0.37 | 95 | 1010.9 |
| 20260506022754 | 49 | 314 | 0.0 | 0.0 | 0.12 | 0.36 | 0.36 | 95 | 1010.5 |
| 20260506022252 | 49 | 337 | 0.0 | 0.0 | 0.12 | 0.35 | 0.35 | 95 | 1011.1 |
| 20260506021750 | 49 | 306 | 0.0 | 0.0 | 0.05 | 0.34 | 0.34 | 95 | 1011.2 |
| 20260506021247 | 49 | 326 | 0.0 | 0.0 | 0.12 | 0.34 | 0.34 | 95 | 1011.1 |
| 20260506020743 | 49 | 322 | 0.0 | 0.0 | 0.12 | 0.33 | 0.33 | 95 | 1010.7 |
| 20260506020241 | 49 | 11 | 0.0 | 0.0 | 0.05 | 0.32 | 0.32 | 94 | 1010.3 |
| 20260506015738 | 49 | 10 | 0.0 | 0.0 | 0.07 | 0.31 | 0.31 | 94 | 1010.3 |
| 20260506015236 | 49 | 280 | 0.0 | 0.0 | 0.07 | 0.31 | 0.31 | 94 | 1010.3 |
| 20260506014732 | 49 | 357 | 0.0 | 0.0 | 0.05 | 0.30 | 0.30 | 94 | 1010.2 |
| 20260506014229 | 49 | 320 | 0.0 | 0.0 | 0.12 | 0.30 | 0.30 | 93 | 1010.5 |
| 20260506013726 | 49 | 348 | 0.0 | 0.0 | 0.17 | 0.30 | 0.30 | 93 | 1010.6 |
| 20260506013223 | 50 | 320 | 0.0 | 0.0 | 0.05 | 0.28 | 0.28 | 93 | 1010.7 |
| 20260506012719 | 49 | 324 | 0.0 | 0.0 | 0.07 | 0.27 | 0.27 | 92 | 1010.8 |
| 20260506012217 | 50 | 325 | 0.0 | 0.0 | 0.14 | 0.27 | 0.27 | 92 | 1010.8 |
| 20260506011714 | 50 | 200 | 0.0 | 0.0 | 0.07 | 0.26 | 0.26 | 92 | 1010.7 |
| 20260506011210 | 50 | 351 | 0.0 | 0.0 | 0.05 | 0.25 | 0.25 | 91 | 1010.6 |
| 20260506010708 | 50 | 331 | 0.0 | 0.0 | 0.05 | 0.25 | 0.25 | 90 | 1010.5 |
| 20260506010205 | 50 | 296 | 0.0 | 0.0 | 0.00 | 0.24 | 0.24 | 90 | 1010.3 |
| 20260506005702 | 50 | 347 | 0.0 | 0.0 | 0.07 | 0.24 | 0.24 | 89 | 1009.9 |
| 20260506005159 | 51 | 334 | 0.0 | 0.0 | 0.19 | 0.24 | 0.24 | 87 | 1010.1 |
| 20260506004655 | 51 | 323 | 0.0 | 0.0 | 0.28 | 0.23 | 0.23 | 86 | 1010.4 |
| 20260506004153 | 52 | 331 | 0.0 | 0.0 | 0.35 | 0.22 | 0.22 | 83 | 1010.5 |
| 20260506003649 | 54 | 246 | 0.0 | 0.0 | 0.17 | 0.19 | 0.19 | 80 | 1010.5 |
| 20260506003145 | 55 | 89 | 1.0 | 1.0 | 0.00 | 0.16 | 0.16 | 76 | 1010.2 |
| 20260506002641 | 55 | 260 | 1.0 | 2.0 | 0.00 | 0.16 | 0.16 | 74 | 1009.7 |
| 20260506002137 | 56 | 340 | 0.0 | 0.0 | 0.00 | 0.16 | 0.16 | 74 | 1009.4 |
| 20260506001633 | 56 | 337 | 4.0 | 5.0 | 0.00 | 0.16 | 0.16 | 74 | 1009.2 |
| 20260506001131 | 57 | 273 | 0.0 | 0.0 | 0.00 | 0.16 | 0.16 | 74 | 1009.1 |
| 20260506000628 | 57 | 347 | 0.0 | 0.0 | 0.00 | 0.16 | 0.16 | 74 | 1009.1 |
| 20260506000125 | 57 | 283 | 0.0 | 1.0 | 0.00 | 0.16 | 0.16 | 74 | 1009.0 |
| 20260505235623 | 58 | 273 | 0.0 | 0.0 | 0.00 | 0.16 | 0.16 | 74 | 1008.6 |
| 20260505235120 | 58 | 344 | 1.0 | 2.0 | 0.00 | 0.16 | 0.16 | 74 | 1008.7 |
| 20260505234617 | 58 | 261 | 0.0 | 0.0 | 0.00 | 0.16 | 0.16 | 74 | 1008.7 |
| 20260505234113 | 59 | 12 | 0.0 | 0.0 | 0.00 | 0.16 | 0.16 | 74 | 1008.2 |
| 20260505233611 | 59 | 341 | 0.0 | 0.0 | 0.00 | 0.16 | 0.16 | 74 | 1008.4 |
| 20260505233108 | 59 | 286 | 0.0 | 2.0 | 0.00 | 0.16 | 0.16 | 75 | 1008.1 |
| 20260505232606 | 59 | 330 | 0.0 | 0.0 | 0.00 | 0.16 | 0.16 | 76 | 1007.8 |
| 20260505232103 | 58 | 307 | 0.0 | 0.0 | 0.00 | 0.16 | 0.16 | 78 | 1007.8 |
| 20260505231600 | 58 | 3 | 0.0 | 0.0 | 0.00 | 0.16 | 0.16 | 79 | 1007.7 |